Weather History for Marysville, OH

Change the Weather History Date:

Thursday, January 30, 2014

  Actual Average (KDLZ) Record (KDLZ)
Temperature  
Mean Temperature 16 °F -  
Max Temperature 28 °F 34 °F 65 °F (1975)
Min Temperature 3 °F 18 °F -11 °F (1977)
Degree Days  
Heating Degree Days 50    
Moisture  
Dew Point 3 °F    
Average Humidity 56    
Maximum Humidity 69    
Minimum Humidity 43    
Precipitation  
Precipitation 0.00 in - - ()
Sea Level Pressure  
Sea Level Pressure 30.08 in    
Wind  
Wind Speed 12 mph (SSW)    
Max Wind Speed 22 mph    
Max Gust Speed 28 mph    
Visibility 10 miles    
Events      
Averages and records for this station are not official NWS values.
T = Trace of Precipitation, MM = Missing Value Source: NWS Daily Summary

Daily Weather History Graph

Daily Weather History Graph

Search for Another Location

Airport:

Trip Planner

Search our weather history database for the weather conditions in past years. The results will help you decide how hot, cold, wet, or windy it might be!

Date:

Astronomy

Jan. 30, 2014 Rise Set
Actual Time 7:44 AM EST 5:49 PM EST
Civil Twilight 7:15 AM EST 6:18 PM EST
Nautical Twilight 6:42 AM EST 6:51 PM EST
Astronomical Twilight 6:10 AM EST 7:23 PM EST
Moon 7:09 AM EST (1/30) 6:00 PM EST (1/30)
Length of Visible Light 11h 03m
Length of Day
10h 05m
Waning Crescent, 0% of the Moon is Illuminated
Jan 30
Waning Crescent
Jan 30
New
Feb 6
First Quarter
Feb 14
Full
Feb 22
Last Quarter

Hourly Weather History & Observations

Time (EST) Temp. Windchill Dew Point Humidity Pressure Visibility Wind Dir Wind Speed Gust Speed Precip Events Conditions
12:15 AM 7.9 °F -5.5 °F -2.9 °F 61% 30.24 in 10.0 mi South 9.2 mph - N/A   Clear
12:34 AM 6.6 °F -6.1 °F -3.8 °F 62% 30.24 in 10.0 mi South 8.1 mph - N/A   Clear
12:54 AM 6.8 °F -5.9 °F -3.3 °F 63% 30.24 in 10.0 mi SSW 8.1 mph - N/A   Clear
1:15 AM 7.2 °F -8.1 °F -3.3 °F 62% 30.22 in 10.0 mi South 11.5 mph - N/A   Clear
1:34 AM 6.8 °F -7.8 °F -3.3 °F 63% 30.22 in 10.0 mi South 10.4 mph - N/A   Clear
1:54 AM 6.6 °F -8.0 °F -3.3 °F 64% 30.22 in 10.0 mi South 10.4 mph - N/A   Clear
2:15 AM 6.8 °F -7.8 °F -3.1 °F 64% 30.22 in 10.0 mi South 10.4 mph - N/A   Clear
2:34 AM 6.8 °F -6.9 °F -2.9 °F 64% 30.22 in 10.0 mi South 9.2 mph - N/A   Clear
2:54 AM 7.7 °F -8.2 °F -2.2 °F 64% 30.22 in 10.0 mi SSW 12.7 mph - N/A   Clear
3:15 AM 7.7 °F -8.2 °F -2.2 °F 64% 30.22 in 10.0 mi SSW 12.7 mph 18.4 mph N/A   Clear
3:34 AM 7.3 °F -10.0 °F -2.2 °F 65% 30.21 in 10.0 mi SSW 15.0 mph - N/A   Clear
3:54 AM 7.2 °F -10.2 °F -2.4 °F 65% 30.21 in 10.0 mi SSW 15.0 mph - N/A   Clear
4:14 AM 7.3 °F -9.3 °F -2.4 °F 65% 30.20 in 10.0 mi SSW 13.8 mph - N/A   Clear
4:34 AM 7.0 °F -9.1 °F -2.7 °F 64% 30.21 in 10.0 mi SSW 12.7 mph - N/A   Clear
4:54 AM 6.4 °F -9.0 °F -3.1 °F 65% 30.21 in 10.0 mi SSW 11.5 mph - N/A   Clear
5:14 AM 5.7 °F -8.2 °F -3.5 °F 66% 30.22 in 10.0 mi SSW 9.2 mph - N/A   Clear
5:34 AM 4.1 °F -9.2 °F -4.5 °F 67% 30.22 in 10.0 mi South 8.1 mph - N/A   Clear
5:54 AM 3.4 °F -10.0 °F -4.9 °F 68% 30.21 in 10.0 mi South 8.1 mph - N/A   Clear
6:14 AM 3.4 °F -8.9 °F -4.7 °F 69% 30.22 in 10.0 mi South 6.9 mph - N/A   Clear
6:34 AM 4.1 °F -9.2 °F -4.2 °F 69% 30.22 in 10.0 mi SSW 8.1 mph - N/A   Clear
6:54 AM 4.8 °F -8.3 °F -4.0 °F 67% 30.23 in 10.0 mi SSW 8.1 mph - N/A   Clear
7:14 AM 4.6 °F -8.5 °F -4.4 °F 66% 30.23 in 10.0 mi SSW 8.1 mph - N/A   Clear
7:34 AM 4.8 °F -8.3 °F -4.0 °F 67% 30.22 in 10.0 mi SSW 8.1 mph - N/A   Clear
7:54 AM 5.5 °F -10.2 °F -3.8 °F 65% 30.22 in 10.0 mi South 11.5 mph - N/A   Clear
8:15 AM 6.1 °F -10.2 °F -3.5 °F 65% 30.20 in 10.0 mi South 12.7 mph - N/A   Clear
8:34 AM 7.5 °F -8.4 °F -3.3 °F 61% 30.20 in 10.0 mi SSW 12.7 mph - N/A   Clear
8:54 AM 8.6 °F -7.7 °F -2.9 °F 60% 30.20 in 10.0 mi SSW 13.8 mph - N/A   Clear
9:15 AM 9.9 °F -4.0 °F -2.4 °F 58% 30.20 in 10.0 mi SSW 10.4 mph - N/A   Clear
9:34 AM 11.3 °F -2.9 °F -1.8 °F 56% 30.21 in 10.0 mi SSW 11.5 mph - N/A   Clear
9:55 AM 11.5 °F -3.4 °F -1.8 °F 55% 30.21 in 10.0 mi SW 12.7 mph - N/A   Clear
10:14 AM 12.0 °F -1.3 °F -1.3 °F 55% 30.21 in 10.0 mi SSW 10.4 mph - N/A   Clear
10:34 AM 13.1 °F -1.4 °F -0.8 °F 54% 30.21 in 10.0 mi SSW 12.7 mph - N/A   Clear
10:55 AM 14.7 °F 1.4 °F 0.5 °F 53% 30.19 in 10.0 mi SSW 11.5 mph - N/A   Clear
11:14 AM 16.2 °F 2.5 °F 1.8 °F 53% 30.16 in 10.0 mi South 12.7 mph - N/A   Clear
11:35 AM 16.3 °F 2.1 °F 3.0 °F 56% 30.14 in 10.0 mi South 13.8 mph - N/A   Clear
11:54 AM 17.4 °F 2.9 °F 2.7 °F 52% 30.14 in 10.0 mi SSW 15.0 mph 18.4 mph N/A   Clear
12:15 PM 19.0 °F 6.8 °F 4.6 °F 54% 30.13 in 10.0 mi SSW 11.5 mph 20.7 mph N/A   Clear
12:34 PM 19.4 °F 4.5 °F 4.6 °F 53% 30.08 in 10.0 mi South 17.3 mph - N/A   Clear
12:54 PM 20.7 °F 5.7 °F 5.5 °F 52% 30.07 in 10.0 mi South 18.4 mph - N/A   Clear
1:15 PM 21.7 °F 7.5 °F 5.0 °F 49% 30.05 in 10.0 mi South 17.3 mph 24.2 mph N/A   Clear
1:34 PM 22.1 °F 7.6 °F 4.6 °F 47% 30.04 in 10.0 mi SSW 18.4 mph 21.9 mph N/A   Clear
1:54 PM 22.6 °F 9.6 °F 5.5 °F 48% 30.04 in 10.0 mi SSW 15.0 mph 21.9 mph N/A   Clear
2:15 PM 23.0 °F 8.3 °F 5.5 °F 47% 30.02 in 10.0 mi SSW 19.6 mph 23.0 mph N/A   Clear
2:34 PM 24.1 °F 10.6 °F 6.1 °F 46% 30.01 in 10.0 mi SSW 17.3 mph 20.7 mph N/A   Clear
2:54 PM 24.1 °F 11.0 °F 5.9 °F 46% 30.00 in 10.0 mi SSW 16.1 mph 23.0 mph N/A   Clear
3:15 PM 24.8 °F 12.9 °F 5.9 °F 45% 29.99 in 10.0 mi South 13.8 mph - N/A   Clear
3:34 PM 24.8 °F 11.5 °F 6.6 °F 46% 29.98 in 10.0 mi South 17.3 mph - N/A   Clear
3:54 PM 25.2 °F 12.9 °F 7.2 °F 46% 29.96 in 10.0 mi SSW 15.0 mph 25.3 mph N/A   Clear
4:15 PM 25.5 °F 12.0 °F 6.8 °F 45% 29.95 in 10.0 mi SSW 18.4 mph 26.5 mph N/A   Clear
4:34 PM 25.7 °F 12.7 °F 7.0 °F 45% 29.93 in 10.0 mi SSW 17.3 mph 26.5 mph N/A   Clear
4:54 PM 26.1 °F 13.6 °F 7.7 °F 46% 29.92 in 10.0 mi South 16.1 mph - N/A   Clear
5:15 PM 26.6 °F 12.4 °F 7.0 °F 43% 29.92 in 10.0 mi SSW 21.9 mph 27.6 mph N/A   Clear
5:34 PM 26.1 °F 12.7 °F 8.6 °F 48% 29.89 in 10.0 mi South 18.4 mph 24.2 mph N/A   Clear
5:54 PM 26.1 °F 13.1 °F 9.5 °F 50% 29.89 in 10.0 mi South 17.3 mph - N/A   Clear
6:14 PM 26.4 °F 14.5 °F 9.3 °F 49% 29.90 in 10.0 mi South 15.0 mph 21.9 mph N/A   Clear
6:34 PM 26.4 °F 15.5 °F 9.7 °F 49% 29.90 in 10.0 mi South 12.7 mph 19.6 mph N/A   Clear
6:55 PM 26.2 °F 15.8 °F 10.4 °F 51% 29.90 in 10.0 mi SSW 11.5 mph - N/A   Clear
7:14 PM 26.6 °F 15.2 °F 10.6 °F 51% 29.90 in 10.0 mi South 13.8 mph 19.6 mph N/A   Scattered Clouds
7:34 PM 26.6 °F 15.2 °F 11.3 °F 53% 29.90 in 10.0 mi South 13.8 mph 18.4 mph N/A   Mostly Cloudy
7:54 PM 26.8 °F 15.9 °F 11.5 °F 53% 29.93 in 10.0 mi SSW 12.7 mph - N/A   Scattered Clouds
8:14 PM 26.8 °F 16.5 °F 11.8 °F 53% 29.92 in 10.0 mi SSW 11.5 mph - N/A   Clear
8:34 PM 27.5 °F 18.0 °F 11.8 °F 52% 29.93 in 10.0 mi SW 10.4 mph - N/A   Scattered Clouds
8:54 PM 27.3 °F 17.1 °F 12.4 °F 53% 29.93 in 10.0 mi SW 11.5 mph - N/A   Mostly Cloudy
9:14 PM 27.5 °F 18.0 °F 12.6 °F 54% 29.93 in 10.0 mi SW 10.4 mph - N/A   Scattered Clouds
9:35 PM 27.7 °F 18.2 °F 12.6 °F 53% 29.93 in 10.0 mi SSW 10.4 mph - N/A   Mostly Cloudy
9:54 PM 28.0 °F 19.3 °F 12.9 °F 53% 29.93 in 10.0 mi SSW 9.2 mph - N/A   Overcast
10:14 PM 28.4 °F 19.7 °F 12.6 °F 52% 29.94 in 10.0 mi SSW 9.2 mph - N/A   Overcast
10:34 PM 28.4 °F 20.4 °F 13.1 °F 53% 29.94 in 10.0 mi SSW 8.1 mph - N/A   Overcast
10:54 PM 28.4 °F 19.7 °F 13.6 °F 54% 29.95 in 10.0 mi SSW 9.2 mph - N/A   Overcast
11:14 PM 28.4 °F 20.4 °F 14.4 °F 56% 29.95 in 10.0 mi SW 8.1 mph - N/A   Overcast
11:34 PM 28.2 °F 19.5 °F 14.4 °F 56% 29.95 in 10.0 mi SW 9.2 mph - N/A   Overcast
11:54 PM 28.2 °F 19.5 °F 14.2 °F 56% 29.95 in 10.0 mi SW 9.2 mph - N/A   Overcast